Regional Weather Roundup
Issued by NWS

Home | Current Version | Previous Version | Graphics & Text | Print | Product List | Glossary On
Versions: 1 2 3 4 5 6 7 8 9 10 11 12 13 14 15 16 17 18 19 20 21 22 23 24 25 26 27 28 29 30 31 32 33 34 35 36 37 38 39 40 41 42 43 44 45 46 47 48 49 50
000
ASUS43 KBIS 171910
RWRND

NORTH DAKOTA REGIONAL WEATHER ROUNDUP
NATIONAL WEATHER SERVICE BISMARCK ND
100 PM CST WED DEC 17 2014

NOTE: "FAIR" INDICATES FEW OR NO CLOUDS BELOW 12,000 FEET WITH NO
SIGNIFICANT WEATHER AND/OR OBSTRUCTIONS TO VISIBILITY.


NDZ001>003-009>011-017-172000-
NORTHWEST NORTH DAKOTA

CITY           SKY/WX    TMP DP  RH WIND       PRES   REMARKS
WILLISTON      CLOUDY    19  12  74 S9        30.13F WCI   8
MINOT          MOSUNNY   16   9  74 SE12      30.22F WCI   3
MINOT AFB      MOSUNNY   16  12  84 SE12      30.21F WCI   3
$$

NDZ018>021-031>035-040>046-172000-
SOUTHWEST NORTH DAKOTA

CITY           SKY/WX    TMP DP  RH WIND       PRES   REMARKS
BISMARCK       MOSUNNY   17   9  70 SE10      30.24F WCI   5
DICKINSON      LGT SNOW  18  12  77 SE14      30.08F WCI   4
GARRISON         N/A     16  12  84 S9        30.19F WCI   4
HETTINGER ARPT CLOUDY    16  13  88 SE13      30.10F WCI   2
$$

NDZ004>008-012>016-024-026-027-054-172000-
NORTHEAST NORTH DAKOTA

CITY           SKY/WX    TMP DP  RH WIND       PRES   REMARKS
GRAND FORKS    MOSUNNY   15   9  76 CALM      30.37F
GRND FRKS AFB  SUNNY     14  11  89 VRB1      30.36F
DEVILS LAKE    SUNNY     12   1  62 SE3       30.28F
$$

NDZ022-023-025-028>030-036>039-047>053-172000-
SOUTHEAST NORTH DAKOTA

CITY           SKY/WX    TMP DP  RH WIND       PRES   REMARKS
FARGO          SUNNY     16   9  74 CALM      30.36F
JAMESTOWN      SUNNY     15   8  73 CALM      30.28F
$$



USA.gov is the U.S. government's official web portal to all federal, state and local government web resources and services.